GW1010 Weather Reports


Display with metric or nautical units.
time (UTC)temp
F
wind
direction
speed
MPH
gust
MPH
rain 1hr
in
rain 24hr
in
rain mn
in
humidity
%
barometer
mb
20260508155529 55 0 0.0 0.0 0.00 0.00 0.00 88 1019.3
20260508155026 54 0 0.0 0.0 0.00 0.00 0.00 90 1019.3
20260508154543 54 0 0.0 2.0 0.00 0.00 0.00 90 1019.3
20260508154027 54 0 0.0 3.0 0.00 0.00 0.00 91 1019.2
20260508153528 53 0 1.0 3.0 0.00 0.00 0.00 91 1019.3
20260508153043 53 313 1.0 3.0 0.00 0.00 0.00 91 1019.3
20260508152525 53 0 0.0 0.0 0.00 0.00 0.00 92 1019.3
20260508152027 53 0 0.0 1.0 0.00 0.00 0.00 93 1019.4
20260508151546 52 0 0.0 1.0 0.00 0.00 0.00 92 1019.3
20260508151028 52 0 0.0 2.0 0.00 0.00 0.00 92 1019.4
20260508150529 52 0 0.0 2.0 0.00 0.00 0.00 93 1019.3
20260508150047 52 307 2.0 4.0 0.00 0.00 0.00 93 1019.4
20260508145527 52 288 1.0 4.0 0.00 0.00 0.00 93 1019.4
20260508145027 52 0 0.0 0.0 0.00 0.00 0.00 94 1019.3
20260508144600 52 0 0.0 0.0 0.00 0.00 0.00 94 1019.2
20260508144027 51 0 0.0 1.0 0.00 0.00 0.00 94 1019.2
20260508143527 51 0 0.0 3.0 0.00 0.00 0.00 94 1019.3
20260508143041 51 308 1.0 3.0 0.00 0.00 0.00 94 1019.1
20260508142528 51 308 1.0 3.0 0.00 0.00 0.00 95 1019.0
20260508142026 51 0 0.0 3.0 0.00 0.00 0.00 95 1019.0
20260508141550 51 0 0.0 3.0 0.00 0.00 0.00 95 1018.9
20260508141026 51 304 1.0 2.0 0.00 0.00 0.00 95 1018.9
20260508140528 50 0 0.0 2.0 0.00 0.00 0.00 95 1018.8
20260508140044 50 0 0.0 2.0 0.00 0.00 0.00 95 1018.8
20260508135532 50 278 0.0 2.0 0.00 0.00 0.00 95 1018.7
20260508135030 49 0 0.0 0.0 0.00 0.00 0.00 95 1018.7
20260508134551 49 0 0.0 2.0 0.00 0.00 0.00 95 1018.5
20260508134028 49 0 0.0 2.0 0.00 0.00 0.00 95 1018.6
20260508133529 49 309 0.0 2.0 0.00 0.00 0.00 95 1018.6
20260508133109 48 0 0.0 0.0 0.00 0.00 0.00 94 1018.5
20260508132527 48 0 0.0 0.0 0.00 0.00 0.00 94 1018.5
20260508132025 48 0 0.0 0.0 0.00 0.00 0.00 94 1018.5
20260508131538 48 0 0.0 0.0 0.00 0.00 0.00 94 1018.4
20260508131029 48 0 0.0 0.0 0.00 0.00 0.00 93 1018.4
20260508130526 48 0 0.0 0.0 0.00 0.00 0.00 93 1018.4
20260508130041 48 0 0.0 1.0 0.00 0.00 0.00 94 1018.3
20260508125528 49 0 0.0 1.0 0.00 0.00 0.00 94 1018.3
20260508125028 49 0 0.0 1.0 0.00 0.00 0.00 94 1018.3
20260508124541 48 0 0.0 0.0 0.00 0.00 0.00 94 1018.3
20260508124028 48 0 0.0 0.0 0.00 0.00 0.00 93 1018.2
20260508123531 48 0 0.0 0.0 0.00 0.00 0.00 93 1018.3
20260508123055 48 0 0.0 0.0 0.00 0.00 0.00 93 1018.3
20260508122527 48 0 0.0 0.0 0.00 0.00 0.00 93 1018.3
20260508122027 48 0 0.0 0.0 0.00 0.00 0.00 92 1018.4
20260508121544 48 0 0.0 0.0 0.00 0.00 0.00 92 1018.4
20260508121029 49 0 0.0 0.0 0.00 0.00 0.00 92 1018.5
20260508120528 49 0 0.0 0.0 0.00 0.00 0.00 92 1018.4
20260508120043 49 0 0.0 0.0 0.00 0.00 0.00 92 1018.4
20260508115528 49 0 0.0 0.0 0.00 0.00 0.00 92 1018.4
20260508115027 49 0 0.0 0.0 0.00 0.00 0.00 91 1018.3
20260508114543 49 0 0.0 0.0 0.00 0.00 0.00 91 1018.3
20260508114028 49 0 0.0 0.0 0.00 0.00 0.00 90 1018.3
20260508113529 49 0 0.0 0.0 0.00 0.00 0.00 90 1018.3
20260508113059 49 0 0.0 0.0 0.00 0.00 0.00 90 1018.3
20260508112532 50 0 0.0 0.0 0.00 0.00 0.00 90 1018.2
20260508112027 50 0 0.0 0.0 0.00 0.00 0.00 90 1018.2
20260508111545 50 0 0.0 0.0 0.00 0.00 0.00 91 1018.1
20260508111027 50 0 0.0 0.0 0.00 0.00 0.00 90 1018.2
20260508110528 50 0 0.0 0.0 0.00 0.00 0.00 90 1018.2
20260508110051 50 0 0.0 0.0 0.00 0.00 0.00 90 1018.2
20260508105528 50 0 0.0 0.0 0.00 0.00 0.00 90 1018.1
20260508105028 50 0 0.0 0.0 0.00 0.00 0.00 89 1018.1
20260508104543 50 0 0.0 0.0 0.00 0.00 0.00 88 1018.1
20260508104028 50 0 0.0 0.0 0.00 0.00 0.00 88 1018.1
20260508103529 50 0 0.0 0.0 0.00 0.00 0.00 88 1018.1
20260508103052 51 0 0.0 0.0 0.00 0.00 0.00 88 1018.0
20260508102527 51 0 0.0 0.0 0.00 0.00 0.00 88 1018.1
20260508102028 51 0 0.0 0.0 0.00 0.00 0.00 87 1018.0
20260508101541 51 0 0.0 0.0 0.00 0.00 0.00 87 1018.0
20260508101028 51 0 0.0 0.0 0.00 0.00 0.00 87 1018.0
20260508100528 51 0 0.0 0.0 0.00 0.00 0.00 87 1018.0
20260508100038 51 0 0.0 0.0 0.00 0.00 0.00 86 1017.9
20260508095528 52 0 0.0 0.0 0.00 0.00 0.00 84 1017.7
20260508095027 52 0 0.0 0.0 0.00 0.00 0.00 83 1017.8
20260508094543 53 0 0.0 0.0 0.00 0.00 0.00 83 1017.8
20260508094025 53 0 0.0 0.0 0.00 0.00 0.00 83 1017.8
20260508093526 53 0 0.0 0.0 0.00 0.00 0.00 83 1017.9
20260508093044 53 0 0.0 0.0 0.00 0.00 0.00 83 1017.9
20260508092527 53 0 0.0 0.0 0.00 0.00 0.00 83 1017.7
20260508092028 53 0 0.0 0.0 0.00 0.00 0.00 83 1017.7
20260508091551 53 0 0.0 0.0 0.00 0.00 0.00 83 1017.7
20260508091026 53 0 0.0 0.0 0.00 0.00 0.00 84 1017.7
20260508090528 53 0 0.0 0.0 0.00 0.00 0.00 84 1017.8
20260508090058 53 0 0.0 0.0 0.00 0.00 0.00 83 1017.7
20260508085528 53 0 0.0 0.0 0.00 0.00 0.00 82 1017.7
20260508085027 54 0 0.0 0.0 0.00 0.00 0.00 82 1017.8
20260508084543 54 0 0.0 0.0 0.00 0.00 0.00 81 1017.7
20260508084029 54 0 0.0 0.0 0.00 0.00 0.00 79 1017.8
20260508083528 55 0 0.0 0.0 0.00 0.00 0.00 78 1017.9
20260508083042 55 0 0.0 0.0 0.00 0.00 0.00 78 1017.9
20260508082529 55 0 0.0 0.0 0.00 0.00 0.00 78 1017.9
20260508082030 56 0 0.0 0.0 0.00 0.00 0.00 77 1017.8
20260508081541 56 0 0.0 0.0 0.00 0.00 0.00 77 1017.9
20260508081032 56 0 0.0 0.0 0.00 0.00 0.00 77 1017.9
20260508080531 56 0 0.0 0.0 0.00 0.00 0.00 77 1017.9
20260508080038 56 0 0.0 0.0 0.00 0.00 0.00 78 1017.8
20260508075527 56 0 0.0 1.0 0.00 0.00 0.00 78 1018.0
20260508075027 55 0 0.0 1.0 0.00 0.00 0.00 79 1017.9
20260508074545 55 0 0.0 0.0 0.00 0.00 0.00 81 1018.0
20260508074028 55 0 0.0 0.0 0.00 0.00 0.00 81 1018.0
20260508073527 55 0 0.0 0.0 0.00 0.00 0.00 82 1017.9
20260508073042 56 0 0.0 0.0 0.00 0.00 0.00 81 1017.9
20260508072530 56 0 0.0 0.0 0.00 0.00 0.00 80 1017.9
20260508072029 56 0 0.0 0.0 0.00 0.00 0.00 80 1017.8
20260508071553 56 0 0.0 0.0 0.00 0.00 0.00 81 1017.8
20260508071031 56 0 0.0 0.0 0.00 0.00 0.00 81 1017.8
20260508070528 57 0 0.0 0.0 0.00 0.00 0.00 79 1017.8
20260508070044 58 0 0.0 0.0 0.00 0.00 0.00 78 1017.7
20260508065526 58 0 0.0 0.0 0.00 0.00 0.00 77 1017.6
20260508065025 58 0 0.0 0.0 0.00 0.00 0.00 77 1017.6
20260508064538 59 0 0.0 0.0 0.00 0.00 0.00 76 1017.6
20260508064026 59 0 0.0 0.0 0.00 0.00 0.00 76 1017.4
20260508063528 59 0 0.0 0.0 0.00 0.00 0.00 76 1017.4
20260508063042 59 0 0.0 0.0 0.00 0.00 0.00 76 1017.5
20260508062528 59 0 0.0 0.0 0.00 0.00 0.00 76 1017.5
20260508062028 59 0 0.0 0.0 0.00 0.00 0.00 77 1017.5
20260508061544 59 0 0.0 0.0 0.00 0.00 0.00 78 1017.5
20260508061027 59 0 0.0 0.0 0.00 0.00 0.00 79 1017.4
20260508060528 59 0 0.0 0.0 0.00 0.00 0.00 79 1017.3
20260508060042 59 0 0.0 0.0 0.00 0.00 0.00 82 1017.3
20260508055528 59 0 0.0 0.0 0.00 0.00 0.00 82 1017.3
20260508055026 59 0 0.0 0.0 0.00 0.00 0.00 84 1017.3
20260508054536 59 0 0.0 0.0 0.00 0.00 0.00 83 1017.2
20260508054025 59 0 0.0 0.0 0.00 0.00 0.00 83 1017.2
20260508053527 60 0 0.0 0.0 0.00 0.00 0.00 83 1017.0
20260508053059 60 0 0.0 0.0 0.00 0.00 0.00 84 1016.9
20260508052528 59 0 0.0 0.0 0.00 0.00 0.00 83 1017.0
20260508052028 59 0 0.0 0.0 0.00 0.00 0.00 83 1017.0
20260508051535 59 0 0.0 0.0 0.00 0.00 0.00 82 1017.0
20260508051028 59 0 0.0 0.0 0.00 0.00 0.00 81 1017.1
20260508050529 60 0 0.0 0.0 0.00 0.00 0.00 80 1017.0
20260508050043 60 0 0.0 0.0 0.00 0.00 0.00 81 1017.0
20260508045533 61 0 0.0 0.0 0.00 0.00 0.00 80 1017.0
20260508045028 61 0 0.0 0.0 0.00 0.00 0.00 80 1016.9
20260508044540 61 0 0.0 0.0 0.00 0.00 0.00 79 1017.0
20260508044032 61 0 0.0 0.0 0.00 0.00 0.00 79 1016.9
20260508043528 62 0 0.0 0.0 0.00 0.00 0.00 78 1016.8
20260508043042 62 0 0.0 0.0 0.00 0.00 0.00 77 1016.6
20260508042528 62 0 0.0 0.0 0.00 0.00 0.00 77 1016.6
20260508042025 63 0 0.0 0.0 0.00 0.00 0.00 77 1016.5
20260508041608 63 0 0.0 0.0 0.00 0.00 0.00 76 1016.4
20260508041028 63 0 0.0 0.0 0.00 0.00 0.00 75 1016.5
20260508040529 64 0 0.0 0.0 0.00 0.00 0.00 74 1016.5
20260508040104 64 0 0.0 0.0 0.00 0.00 0.00 73 1016.6
20260508035529 65 0 0.0 0.0 0.00 0.00 0.00 74 1016.5
20260508035030 65 0 0.0 0.0 0.00 0.00 0.00 73 1016.4
20260508034537 65 0 0.0 0.0 0.00 0.00 0.00 71 1016.4
20260508034025 66 0 0.0 0.0 0.00 0.00 0.00 69 1016.3
20260508033525 66 0 0.0 0.0 0.00 0.00 0.00 68 1016.2
20260508033036 67 0 0.0 0.0 0.00 0.00 0.00 68 1016.1
20260508032526 67 0 0.0 0.0 0.00 0.00 0.00 68 1016.1
20260508032025 67 0 0.0 0.0 0.00 0.00 0.00 66 1016.0
20260508031541 68 0 0.0 0.0 0.00 0.00 0.00 64 1016.0
20260508031028 68 0 0.0 0.0 0.00 0.00 0.00 64 1015.8
20260508030528 69 0 0.0 0.0 0.00 0.00 0.00 63 1015.9
20260508030041 70 0 0.0 0.0 0.00 0.00 0.00 63 1015.9
20260508025529 70 0 0.0 0.0 0.00 0.00 0.00 62 1015.8
20260508025028 71 0 0.0 0.0 0.00 0.00 0.00 61 1015.7
20260508024544 71 0 0.0 0.0 0.00 0.00 0.00 59 1015.6
20260508024029 72 0 0.0 0.0 0.00 0.00 0.00 59 1015.5
20260508023530 72 0 0.0 0.0 0.00 0.00 0.00 58 1015.4
20260508023045 72 0 0.0 0.0 0.00 0.00 0.00 58 1015.4
20260508022528 73 0 0.0 1.0 0.00 0.00 0.00 57 1015.3
20260508022028 73 0 0.0 1.0 0.00 0.00 0.00 56 1015.2
20260508021542 73 0 0.0 4.0 0.00 0.00 0.00 56 1015.2
20260508021028 74 225 0.0 4.0 0.00 0.00 0.00 55 1015.1
20260508020525 74 222 0.0 3.0 0.00 0.00 0.00 55 1015.2
20260508020046 74 213 1.0 4.0 0.00 0.00 0.00 54 1015.1
20260508015528 75 116 1.0 4.0 0.00 0.00 0.00 54 1015.1
20260508015028 75 150 1.0 6.0 0.00 0.00 0.00 54 1015.0
20260508014541 75 0 1.0 7.0 0.00 0.00 0.00 54 1015.1
20260508014029 76 160 1.0 7.0 0.00 0.00 0.00 53 1015.1
20260508013530 76 124 3.0 7.0 0.00 0.00 0.00 52 1015.1
20260508013044 77 129 3.0 6.0 0.00 0.00 0.00 52 1015.1
20260508012528 77 163 2.0 6.0 0.00 0.00 0.00 51 1015.1
20260508012032 78 137 2.0 6.0 0.00 0.00 0.00 49 1015.1
20260508011553 79 112 2.0 6.0 0.00 0.00 0.00 49 1015.0
20260508011030 80 153 1.0 10.0 0.00 0.00 0.00 47 1015.1
20260508010528 81 240 2.0 10.0 0.00 0.00 0.00 46 1015.1
20260508010046 82 56 2.0 5.0 0.00 0.00 0.00 45 1015.0
20260508005530 82 154 1.0 5.0 0.00 0.00 0.00 45 1015.0
20260508005030 82 249 2.0 5.0 0.00 0.00 0.00 45 1015.0
20260508004544 82 121 1.0 8.0 0.00 0.00 0.00 44 1015.0
20260508004028 83 94 2.0 8.0 0.00 0.00 0.00 44 1014.9
20260508003528 84 259 1.0 5.0 0.00 0.00 0.00 43 1015.0
20260508003041 84 280 1.0 5.0 0.00 0.00 0.00 43 1015.0
20260508002528 84 108 1.0 6.0 0.00 0.00 0.00 44 1015.0
20260508002029 84 229 2.0 6.0 0.00 0.00 0.00 43 1014.9
20260508001545 85 156 2.0 5.0 0.00 0.00 0.00 43 1015.0
20260508001028 86 255 1.0 4.0 0.00 0.00 0.00 42 1015.0
20260508000528 86 231 1.0 4.0 0.00 0.00 0.00 42 1014.9
20260508000041 85 243 1.0 5.0 0.00 0.00 0.00 43 1014.7
20260507235528 85 233 1.0 6.0 0.00 0.00 0.00 43 1014.8
20260507235025 85 277 2.0 7.0 0.00 0.00 0.00 43 1014.8
20260507234543 86 226 2.0 7.0 0.00 0.00 0.00 42 1014.8
20260507234027 86 139 2.0 7.0 0.00 0.00 0.00 42 1014.8
20260507233525 86 178 2.0 5.0 0.00 0.00 0.00 41 1015.0
20260507233057 87 237 1.0 4.0 0.00 0.00 0.00 41 1015.0
20260507232528 87 322 1.0 5.0 0.00 0.00 0.00 41 1014.9
20260507232029 87 238 1.0 5.0 0.00 0.00 0.00 41 1015.0
20260507231543 87 229 2.0 5.0 0.00 0.00 0.00 41 1015.0
20260507231025 87 249 1.0 5.0 0.00 0.00 0.00 40 1014.9
20260507230525 87 248 1.0 6.0 0.00 0.00 0.00 41 1015.0
20260507230045 87 255 1.0 6.0 0.00 0.00 0.00 41 1014.9
20260507225531 87 90 2.0 9.0 0.00 0.00 0.00 41 1015.1
20260507225031 87 267 1.0 10.0 0.00 0.00 0.00 42 1015.2
20260507224554 87 197 2.0 10.0 0.00 0.00 0.00 41 1015.2
20260507224028 87 65 3.0 9.0 0.00 0.00 0.00 41 1015.2
20260507223532 88 335 2.0 9.0 0.00 0.00 0.00 41 1015.3
20260507223044 88 117 3.0 9.0 0.00 0.00 0.00 41 1015.3
20260507222530 89 195 2.0 8.0 0.00 0.00 0.00 39 1015.3
20260507222027 89 280 3.0 8.0 0.00 0.00 0.00 40 1015.3
20260507221543 89 196 2.0 9.0 0.00 0.00 0.00 40 1015.2
20260507221027 89 171 2.0 9.0 0.00 0.00 0.00 41 1015.1
20260507220528 89 217 2.0 6.0 0.00 0.00 0.00 40 1015.2
20260507220041 89 84 2.0 7.0 0.00 0.00 0.00 40 1015.3
20260507215531 90 94 3.0 7.0 0.00 0.00 0.00 39 1015.3
20260507215028 91 201 3.0 7.0 0.00 0.00 0.00 38 1015.4
20260507214542 92 173 1.0 4.0 0.00 0.00 0.00 38 1015.4
20260507214031 92 65 1.0 3.0 0.00 0.00 0.00 36 1015.5
20260507213528 91 171 0.0 3.0 0.00 0.00 0.00 35 1015.5
20260507213053 90 160 1.0 3.0 0.00 0.00 0.00 34 1015.6
20260507212528 90 177 1.0 2.0 0.00 0.00 0.00 35 1015.7
20260507212025 90 174 1.0 4.0 0.00 0.00 0.00 33 1015.7
20260507211536 89 148 1.0 5.0 0.00 0.00 0.00 36 1015.8
20260507211030 89 173 0.0 6.0 0.00 0.00 0.00 37 1015.9
20260507210530 89 314 2.0 6.0 0.00 0.00 0.00 37 1016.0
20260507210050 89 350 2.0 6.0 0.00 0.00 0.00 36 1016.0
20260507205528 89 316 2.0 6.0 0.00 0.00 0.00 35 1016.0
20260507205028 91 328 1.0 6.0 0.00 0.00 0.00 36 1016.0
20260507204541 90 295 0.0 4.0 0.00 0.00 0.00 35 1016.1
20260507204028 90 162 1.0 4.0 0.00 0.00 0.00 34 1016.1
20260507203528 90 321 1.0 5.0 0.00 0.00 0.00 35 1016.2
20260507203045 89 178 0.0 5.0 0.00 0.00 0.00 37 1016.2
20260507202528 89 351 2.0 5.0 0.00 0.00 0.00 36 1016.2
20260507202031 89 307 0.0 4.0 0.00 0.00 0.00 37 1016.4
20260507201541 88 172 0.0 3.0 0.00 0.00 0.00 40 1016.4
20260507201028 87 4 1.0 6.0 0.00 0.00 0.00 40 1016.5
20260507200528 86 0 1.0 6.0 0.00 0.00 0.00 38 1016.6
20260507200046 87 307 2.0 6.0 0.00 0.00 0.00 39 1016.7
20260507195528 87 0 0.0 4.0 0.00 0.00 0.00 41 1016.7
20260507195028 87 159 1.0 4.0 0.00 0.00 0.00 41 1016.7
20260507194611 86 208 0.0 4.0 0.00 0.00 0.00 41 1016.8
20260507194027 85 0 0.0 5.0 0.00 0.00 0.00 42 1016.9
20260507193527 85 316 0.0 5.0 0.00 0.00 0.00 43 1017.0
20260507193044 85 314 2.0 5.0 0.00 0.00 0.00 41 1017.1
20260507192528 85 350 0.0 5.0 0.00 0.00 0.00 43 1017.1
20260507192028 84 333 0.0 5.0 0.00 0.00 0.00 46 1017.2
20260507191543 83 288 0.0 6.0 0.00 0.00 0.00 46 1017.3
20260507191030 83 323 1.0 6.0 0.00 0.00 0.00 44 1017.4
20260507190528 83 333 1.0 4.0 0.00 0.00 0.00 45 1017.4
20260507190042 83 318 1.0 4.0 0.00 0.00 0.00 44 1017.4
20260507185528 83 327 1.0 4.0 0.00 0.00 0.00 45 1017.4
20260507185028 83 44 1.0 3.0 0.00 0.00 0.00 46 1017.6
20260507184544 83 319 0.0 2.0 0.00 0.00 0.00 46 1017.6
20260507184027 82 228 0.0 3.0 0.00 0.00 0.00 47 1017.7
20260507183527 81 0 1.0 3.0 0.00 0.00 0.00 49 1017.7
20260507183046 80 305 1.0 3.0 0.00 0.00 0.00 50 1017.7
20260507182528 80 67 2.0 4.0 0.00 0.00 0.00 49 1017.9
20260507182028 79 293 0.0 5.0 0.00 0.00 0.00 49 1017.7
20260507181552 78 357 1.0 5.0 0.00 0.00 0.00 53 1017.8
20260507181033 77 315 2.0 5.0 0.00 0.00 0.00 54 1017.8
20260507180529 77 13 1.0 4.0 0.00 0.00 0.00 55 1017.9
20260507180043 76 308 1.0 4.0 0.00 0.00 0.00 54 1017.9
20260507175530 76 0 1.0 3.0 0.00 0.00 0.00 57 1017.9
20260507175032 75 314 1.0 3.0 0.00 0.00 0.00 57 1017.9
20260507174547 74 304 0.0 3.0 0.00 0.00 0.00 58 1017.9
20260507174029 73 329 1.0 4.0 0.00 0.00 0.00 59 1018.0
20260507173528 73 0 0.0 4.0 0.00 0.00 0.00 62 1018.1
20260507173108 72 304 1.0 4.0 0.00 0.00 0.00 61 1018.1
20260507172528 72 318 1.0 4.0 0.00 0.00 0.00 63 1018.2
20260507172028 71 354 0.0 5.0 0.00 0.00 0.00 64 1018.3
20260507171548 70 311 2.0 5.0 0.00 0.00 0.00 65 1018.4
20260507171028 70 0 2.0 5.0 0.00 0.00 0.00 64 1018.4
20260507170528 70 328 0.0 3.0 0.00 0.00 0.00 66 1018.5
20260507170043 69 316 0.0 5.0 0.00 0.00 0.00 67 1018.4
20260507165528 68 295 1.0 5.0 0.00 0.00 0.00 69 1018.5
20260507165028 67 297 2.0 5.0 0.00 0.00 0.00 69 1018.6
20260507164550 67 321 2.0 5.0 0.00 0.00 0.00 70 1018.6
20260507164029 66 18 1.0 6.0 0.00 0.00 0.00 73 1018.7
20260507163529 65 273 2.0 6.0 0.00 0.00 0.00 72 1018.7
20260507163047 64 321 1.0 6.0 0.00 0.00 0.00 74 1018.8
20260507162528 64 321 2.0 5.0 0.00 0.00 0.00 75 1018.7
20260507162030 63 0 1.0 5.0 0.00 0.00 0.00 76 1018.8
20260507161602 63 330 2.0 5.0 0.00 0.00 0.00 78 1018.7
20260507161028 62 319 1.0 5.0 0.00 0.00 0.00 79 1018.8
20260507160528 61 332 2.0 5.0 0.00 0.00 0.00 81 1018.8
20260507160045 61 0 0.0 2.0 0.00 0.00 0.00 84 1018.8